Location: Taylor Dark Sky Site
(39.1017°N, 87.9564°W)
Time: 10:21:41
(UTC-05:00)

Amateur Radio Satellites - All Passes

Search period start: 28 September 2016 09:51
Search period end: 29 September 2016 09:51
Location: Taylor Dark Sky Site, 39.1017°N, 87.9564°W

Satellite Date Start Highest point End Downlink Frequencies (MHz)
Time Altitude Azimuth
COMPASS 1 28 Sep 09:56:02 09:59:51 34° 289° (WNW) 10:03:38 437.405
UWE-3 28 Sep 09:59:38 10:03:56 65° 285° (WNW) 10:08:19 435.000/436.395/437.385
BEESAT 3 28 Sep 10:01:00 10:05:00 77° 60° (ENE) 10:08:57 437.485
JAS-2 28 Sep 10:04:35 10:07:05 12° 52° (NE) 10:09:40 435.910
Cosmos 2499 28 Sep 10:10:33 10:17:03 37° 285° (WNW) 10:23:30 435.465 / 435.565
UNISAT 6 28 Sep 10:16:31 10:20:47 77° 77° (ENE) 10:25:03 437.425
Oscar 11 28 Sep 10:25:31 10:29:47 55° 286° (WNW) 10:34:02 145.826/435.025
SEEDS 28 Sep 10:27:10 10:28:49 12° 296° (WNW) 10:30:28 437.485
DELFI C3 28 Sep 10:27:49 10:31:49 61° 100° (E) 10:35:45 145.870
ZACube-1 28 Sep 10:28:13 10:32:24 49° 286° (WNW) 10:36:41 437.345
GONETS M04 28 Sep 10:40:28 10:47:32 26° 292° (WNW) 10:54:41
PHONESAT 2.4 28 Sep 10:43:33 10:46:17 37° 157° (SSE) 10:49:02 2401.200-2431.200
QB50P2 28 Sep 10:43:57 10:47:03 20° 68° (ENE) 10:50:09 145.880/145.840
HUMSAT D 28 Sep 10:44:55 10:49:02 46° 99° (E) 10:53:09 437.325/437.525
POLYITAN 1 28 Sep 10:46:10 10:49:15 20° 68° (ENE) 10:52:21 437.675
AAUSAT CUBESAT 2 28 Sep 10:48:24 10:50:12 13° 296° (WNW) 10:51:59 437.432
ANTELSAT 28 Sep 10:52:13 10:56:15 41° 261° (W) 11:00:17 437.575/2403.000
BEESAT 2 28 Sep 10:57:29 11:01:23 50° 243° (WSW) 11:05:15 435.950
TIGRISAT 28 Sep 11:13:12 11:16:46 25° 264° (W) 11:20:19 435.000
HO-68 28 Sep 11:18:19 11:20:31 12° 309° (NW) 11:22:42 435.675
DUCHIFAT 1 28 Sep 11:22:26 11:26:24 44° 73° (ENE) 11:30:23 145.980
FUNcube-1 28 Sep 11:23:33 11:25:57 15° 294° (WNW) 11:28:22 145.935
BUGSAT 1 28 Sep 11:24:08 11:27:00 19° 67° (ENE) 11:29:50 437.445
QB50P1 28 Sep 11:24:56 11:29:02 55° 74° (ENE) 11:33:10 145.935-145.965
ESTCUBE 1 28 Sep 11:32:49 11:36:28 23° 95° (E) 11:40:05 437.505/2401.250
CUBEBUG 1 28 Sep 11:34:06 11:36:27 14° 92° (E) 11:38:47 437.445
POPSAT HIP 1 28 Sep 11:38:25 11:42:37 79° 75° (ENE) 11:46:49 437.405
JAS-2 28 Sep 11:44:09 11:50:31 67° 72° (ENE) 11:57:45 435.910
AIST 2 28 Sep 11:46:32 11:49:42 20° 47° (NE) 11:52:51 435.215
50 SAT 28 Sep 11:50:15 11:52:08 14° 93° (E) 11:54:01 437.505
PCSat 28 Sep 11:52:36 11:53:07 10° 38° (NE) 11:53:38 145.827
NANOSAT C BR1 28 Sep 11:54:25 11:58:36 70° 259° (WSW) 12:02:47 145.865
Oscar 19 28 Sep 11:55:03 11:56:09 11° 59° (ENE) 11:57:15 437.125/150
DELFI C3 28 Sep 12:05:24 12:06:05 10° 296° (WNW) 12:06:47 145.870
SPROUT 28 Sep 12:12:19 12:14:56 16° 93° (E) 12:17:31 437.525
QB50P2 28 Sep 12:18:53 12:22:38 31° 263° (W) 12:26:25 145.880/145.840
PHONESAT 2.4 28 Sep 12:19:23 12:22:18 71° 353° (N) 12:25:15 2401.200-2431.200
POLYITAN 1 28 Sep 12:21:06 12:24:51 31° 263° (W) 12:28:36 437.675
HUMSAT D 28 Sep 12:21:49 12:24:16 15° 294° (WNW) 12:26:42 437.325/437.525
AISAT 28 Sep 12:22:25 12:26:34 40° 99° (E) 12:30:40 437.250
UKube-1 28 Sep 12:27:04 12:30:15 20° 95° (E) 12:33:24 .
YUBILEINY 28 Sep 12:36:15 12:41:24 17° 62° (ENE) 12:46:30 435.215
Gurwin Techsat 1B 28 Sep 12:54:10 12:57:52 20° 64° (ENE) 13:01:35 435.225
AUBIESAT-1 28 Sep 12:55:45 12:58:44 31° 103° (ESE) 13:01:45 437.475
DX 1 28 Sep 12:55:54 13:00:11 56° 101° (E) 13:04:25 434.975-435.025
BUGSAT 1 28 Sep 12:58:25 13:02:08 33° 262° (W) 13:05:50 437.445
DUCHIFAT 1 28 Sep 13:00:08 13:02:18 14° 268° (W) 13:04:28 145.980
QB50P1 28 Sep 13:03:52 13:05:08 11° 269° (W) 13:06:23 145.935-145.965
VELOX 1 28 Sep 13:05:50 13:10:13 68° 286° (WNW) 13:14:33 145.980
CUBEBUG 1 28 Sep 13:08:49 13:12:58 46° 287° (WNW) 13:17:05 437.445
ESTCUBE 1 28 Sep 13:09:16 13:13:16 31° 290° (WNW) 13:17:12 437.505/2401.250
50 SAT 28 Sep 13:22:24 13:25:45 34° 288° (WNW) 13:29:03 437.505
AIST 2 28 Sep 13:24:23 13:28:20 41° 244° (WSW) 13:32:16 435.215
Oscar 19 28 Sep 13:29:26 13:34:38 86° 72° (ENE) 13:39:52 437.125/150
TISAT 1 28 Sep 13:30:05 13:33:22 22° 95° (E) 13:36:38 437.305
JAS-2 28 Sep 13:31:37 13:36:15 20° 272° (W) 13:41:18 435.910
PCSat 28 Sep 13:32:22 13:37:44 57° 59° (ENE) 13:43:02 145.827
M-CUBED/EXP-1 PRIME 28 Sep 13:33:32 13:36:43 51° 290° (WNW) 13:39:54 437.505
SPROUT 28 Sep 13:47:03 13:51:01 40° 288° (WNW) 13:54:59 437.525
PHONESAT 2.4 28 Sep 13:55:35 13:58:32 76° 10° (N) 14:01:29 2401.200-2431.200
AISAT 28 Sep 13:59:47 14:02:42 18° 294° (WNW) 14:05:37 437.250
UKube-1 28 Sep 14:02:28 14:06:20 33° 290° (WNW) 14:10:11 .
AO-7 28 Sep 14:05:04 14:11:32 26° 56° (NE) 14:17:58 29.400- 29.500
ITUPSAT 1 28 Sep 14:07:17 14:08:19 11° 90° (E) 14:09:22 437.325
SWISSCUBE 28 Sep 14:18:12 14:21:19 17° 93° (E) 14:24:25 437.505
ITAMSAT 1 28 Sep 14:24:26 14:29:08 37° 69° (ENE) 14:33:52 435.822/435.867
Cosmos 2491 28 Sep 14:25:05 14:33:13 45° 88° (E) 14:41:25 435.465 / 435.565
BEESAT 28 Sep 14:30:44 14:34:19 21° 94° (E) 14:37:52 436.000
YUBILEINY 28 Sep 14:30:47 14:39:33 85° 84° (E) 14:48:15 435.215
AUBIESAT-1 28 Sep 14:31:27 14:32:58 13° 298° (WNW) 14:34:28 437.475
Gurwin Techsat 1B 28 Sep 14:32:13 14:37:22 53° 260° (W) 14:42:35 435.225
DX 1 28 Sep 14:33:51 14:35:52 13° 297° (WNW) 14:37:51 434.975-435.025
SO-50 28 Sep 14:45:09 14:49:40 40° 115° (ESE) 14:54:09 436.795
Cosmos 2504 28 Sep 14:59:44 15:07:01 52° 78° (ENE) 15:14:44 435.465 / 435.565
TISAT 1 28 Sep 15:05:26 15:08:58 27° 290° (WNW) 15:12:31 437.305
Oscar 19 28 Sep 15:14:13 15:14:33 10° 271° (W) 15:14:54 437.125/150
PCSat 28 Sep 15:16:59 15:20:37 19° 255° (WSW) 15:24:15 145.827
PHONESAT 2.4 28 Sep 15:31:50 15:34:31 31° 205° (SSW) 15:37:12 2401.200-2431.200
ITUPSAT 1 28 Sep 15:41:50 15:46:39 74° 286° (WNW) 15:51:26 437.325
MOZHAYETS 4 28 Sep 15:51:01 15:54:49 24° 95° (E) 15:58:36
SWISSCUBE 28 Sep 15:54:43 15:59:20 47° 288° (WNW) 16:03:55 437.505
AO-7 28 Sep 15:55:15 16:03:33 73° 255° (WSW) 16:11:52 29.400- 29.500
ITAMSAT 1 28 Sep 16:04:26 16:08:39 25° 265° (W) 16:12:54 435.822/435.867
AIST 1 28 Sep 16:05:30 16:09:28 36° 78° (ENE) 16:13:24
BEESAT 28 Sep 16:07:45 16:12:12 39° 289° (WNW) 16:16:38 436.000
KKS-1 28 Sep 16:11:32 16:15:07 24° 96° (E) 16:18:40 437.445
Cosmos 2491 28 Sep 16:22:03 16:30:04 39° 287° (WNW) 16:38:13 435.465 / 435.565
SO-50 28 Sep 16:26:13 16:30:15 26° 312° (NW) 16:34:16 436.795
O/OREOS (USA 219) 28 Sep 16:26:14 16:30:04 25° 60° (ENE) 16:33:51 437.305
HORYU 2 28 Sep 16:28:36 16:32:18 27° 69° (ENE) 16:36:02 437.375
YUBILEINY 28 Sep 16:29:53 16:35:07 18° 282° (WNW) 16:40:22 435.215
GOMX 1 28 Sep 16:40:27 16:41:13 10° 61° (ENE) 16:42:01 467.674
STARS 28 Sep 16:43:12 16:46:48 25° 96° (E) 16:50:23 437.465
BRITE-PL 28 Sep 16:50:02 16:54:58 32° 69° (ENE) 16:59:51 437.365/2234.400
Cosmos 2504 28 Sep 16:53:52 16:59:58 28° 275° (W) 17:06:23 435.465 / 435.565
CUBESAT XI-V 28 Sep 17:12:44 17:16:30 23° 94° (E) 17:20:13 437.345
NOAA 18 28 Sep 17:17:14 17:20:55 19° 62° (ENE) 17:24:38 137.9125
MOZHAYETS 4 28 Sep 17:27:53 17:31:57 31° 290° (WNW) 17:36:01
CUSAT 1 28 Sep 17:34:57 17:36:34 11° 75° (ENE) 17:38:15 437.405
AIST 1 28 Sep 17:44:04 17:46:43 16° 274° (W) 17:49:21
KKS-1 28 Sep 17:47:50 17:51:39 29° 291° (WNW) 17:55:27 437.445
NOAA 15 28 Sep 17:49:10 17:54:18 53° 71° (ENE) 17:59:28 137.62
AO-7 28 Sep 17:54:53 17:57:35 12° 272° (W) 18:00:17 29.400- 29.500
HORYU 2 28 Sep 18:05:09 18:08:47 25° 264° (W) 18:12:27 437.375
O/OREOS (USA 219) 28 Sep 18:05:25 18:09:27 31° 257° (WSW) 18:13:27 437.305
CUTE-I 28 Sep 18:07:56 18:13:10 64° 73° (ENE) 18:18:26 437.470
Cubesat XI-IV 28 Sep 18:08:02 18:13:16 63° 73° (ENE) 18:18:32 437.490
HO-68 28 Sep 18:10:02 18:14:10 17° 55° (NE) 18:18:17 435.675
Cosmos 2499 28 Sep 18:11:46 18:13:34 11° 62° (ENE) 18:15:24 435.465 / 435.565
GOMX 1 28 Sep 18:13:07 18:18:33 82° 74° (ENE) 18:23:43 467.674
STARS 28 Sep 18:19:24 18:23:05 27° 291° (WNW) 18:26:46 437.465
BRITE-PL 28 Sep 18:28:06 18:33:17 35° 264° (W) 18:38:25 437.365/2234.400
LilacSat-2 28 Sep 18:29:42 18:33:26 70° 258° (WSW) 18:37:13 437.200
DOVE 4 28 Sep 18:31:05 18:35:59 54° 74° (ENE) 18:40:38 437.250
RS-15 28 Sep 18:34:36 18:43:48 29° 102° (ESE) 18:53:20 29.354- 29.394
CUBESAT XI-V 28 Sep 18:49:42 18:53:53 32° 290° (WNW) 18:58:01 437.345
GONETS M04 28 Sep 18:53:40 19:01:14 31° 70° (ENE) 19:08:41
NOAA 18 28 Sep 18:55:44 19:01:06 58° 258° (WSW) 19:06:30 137.9125
DANDE 28 Sep 19:09:28 19:13:38 24° 82° (E) 19:18:44 436.750
CUSAT 1 28 Sep 19:10:42 19:16:50 73° 95° (E) 19:24:24 437.405
COMPASS 1 28 Sep 19:12:36 19:13:57 11° 64° (ENE) 19:15:19 437.405
NOAA 15 28 Sep 19:30:46 19:34:22 18° 267° (W) 19:37:58 137.62
CINEMA 3 28 Sep 19:37:25 19:41:52 68° 76° (ENE) 19:46:10 145.822/145.860
CUTE 1.7 + AOD 2 28 Sep 19:39:47 19:43:52 49° 74° (ENE) 19:47:59 437.475
ISS 28 Sep 19:39:56 19:42:57 37° 136° (SE) 19:45:59 145.825
SEEDS 28 Sep 19:39:58 19:43:45 34° 71° (ENE) 19:47:35 437.485
CANX-2 28 Sep 19:41:07 19:45:16 60° 75° (ENE) 19:49:29 2200.000
CUTE-I 28 Sep 19:50:43 19:53:38 15° 269° (W) 19:56:34 437.470
Cubesat XI-IV 28 Sep 19:50:47 19:53:45 15° 269° (W) 19:56:44 437.490
HO-68 28 Sep 19:53:40 20:00:51 86° 73° (ENE) 20:08:03 435.675
GOMX 1 28 Sep 19:55:22 19:57:03 11° 270° (W) 19:58:43 467.674
AAUSAT CUBESAT 2 28 Sep 20:00:11 20:03:50 30° 71° (ENE) 20:07:31 437.432
Cosmos 2499 28 Sep 20:00:26 20:08:02 68° 81° (E) 20:16:12 435.465 / 435.565
DOVE 4 28 Sep 20:10:54 20:13:53 16° 268° (W) 20:16:47 437.250
STRAND 1 28 Sep 20:12:01 20:17:12 76° 103° (ESE) 20:22:21 437.568
AO-85 28 Sep 20:25:42 20:30:32 39° 115° (ESE) 20:35:09 145.980
CUBEBUG 2 28 Sep 20:39:10 20:43:22 87° 82° (E) 20:47:33 437.445
FUNcube-1 28 Sep 20:40:35 20:44:15 31° 71° (ENE) 20:47:55 145.935
RS-15 28 Sep 20:43:22 20:54:59 77° 303° (WNW) 21:07:16 29.354- 29.394
COMPASS 1 28 Sep 20:44:51 20:48:57 60° 259° (W) 20:53:08 437.405
GONETS M04 28 Sep 20:49:56 20:58:26 56° 270° (W) 21:06:53
DANDE 28 Sep 20:50:54 20:55:50 43° 288° (WNW) 21:02:18 436.750
CUSAT 1 28 Sep 20:54:57 20:59:47 21° 298° (WNW) 21:05:15 437.405
UWE-3 28 Sep 20:55:21 20:59:31 86° 77° (ENE) 21:03:41 435.000/436.395/437.385
DELFI C3 28 Sep 21:12:32 21:16:01 29° 71° (ENE) 21:19:30 145.870
SEEDS 28 Sep 21:16:35 21:19:32 18° 267° (W) 21:22:29 437.485
ISS 28 Sep 21:16:43 21:19:31 25° 332° (NNW) 21:22:19 145.825
CUTE 1.7 + AOD 2 28 Sep 21:18:05 21:19:58 13° 269° (W) 21:21:52 437.475
Oscar 11 28 Sep 21:18:37 21:22:55 86° 256° (WSW) 21:27:16 145.826/435.025
CANX-2 28 Sep 21:20:49 21:21:31 10° 270° (W) 21:22:12 2200.000
ZACube-1 28 Sep 21:22:38 21:26:46 74° 259° (W) 21:30:55 437.345
PRISM 28 Sep 21:25:45 21:29:40 40° 99° (E) 21:33:32 437.425
HUMSAT D 28 Sep 21:35:23 21:38:48 26° 70° (ENE) 21:42:15 437.325/437.525
AAUSAT CUBESAT 2 28 Sep 21:36:14 21:39:20 20° 266° (W) 21:42:27 437.432
HO-68 28 Sep 21:45:20 21:49:20 16° 270° (W) 21:53:22 435.675
STRAND 1 28 Sep 21:53:18 21:55:42 13° 299° (WNW) 21:58:06 437.568
Cosmos 2499 28 Sep 21:54:58 22:00:29 22° 277° (W) 22:06:16 435.465 / 435.565
AO-85 28 Sep 22:06:37 22:11:04 29° 310° (NW) 22:15:18 145.980
UNISAT 6 28 Sep 22:10:00 22:12:59 17° 94° (E) 22:15:58 437.425
JUGNU 28 Sep 22:14:36 22:16:01 11° 182° (S) 22:17:25 437.505
FUNcube-1 28 Sep 22:17:38 22:20:33 19° 266° (W) 22:23:29 145.935
CUBEBUG 1 28 Sep 22:30:09 22:31:41 12° 63° (ENE) 22:33:12 437.445
ESTCUBE 1 28 Sep 22:31:36 22:34:53 20° 66° (ENE) 22:38:09 437.505/2401.250
ANTELSAT 28 Sep 22:44:22 22:48:34 41° 99° (E) 22:52:50 437.575/2403.000
M-CUBED/EXP-1 PRIME 28 Sep 22:46:30 22:48:06 12° 61° (ENE) 22:49:39 437.505
DELFI C3 28 Sep 22:47:57 22:50:51 19° 266° (W) 22:53:47 145.870
ISS 28 Sep 22:56:28 22:56:54 10° 352° (N) 22:57:19 145.825
JAS-2 28 Sep 22:58:49 23:01:04 11° 83° (E) 23:03:17 435.910
RS-15 28 Sep 23:00:10 23:09:56 28° 331° (NNW) 23:20:04 29.354- 29.394
PRISM 28 Sep 23:02:08 23:04:36 16° 295° (WNW) 23:07:03 437.425
TIGRISAT 28 Sep 23:04:27 23:08:51 66° 101° (ESE) 23:13:21 435.000
SPROUT 28 Sep 23:06:17 23:07:38 11° 63° (ENE) 23:08:59 437.525
HUMSAT D 28 Sep 23:11:11 23:14:22 22° 265° (W) 23:17:36 437.325/437.525
SRMSAT 28 Sep 23:14:05 23:14:30 10° 174° (S) 23:14:56 437.500
SO-50 28 Sep 23:17:51 23:21:45 27° 48° (NE) 23:25:34 436.795
AISAT 28 Sep 23:18:36 23:22:32 32° 70° (ENE) 23:26:29 437.250
UKube-1 28 Sep 23:21:11 23:23:46 16° 65° (ENE) 23:26:22 .
POPSAT HIP 1 28 Sep 23:25:51 23:27:59 14° 92° (E) 23:30:08 437.405
AUBIESAT-1 28 Sep 23:40:09 23:43:56 39° 69° (ENE) 23:47:28 437.475
NANOSAT C BR1 28 Sep 23:40:38 23:43:42 19° 94° (E) 23:46:45 145.865
UNISAT 6 28 Sep 23:45:40 23:49:49 40° 288° (WNW) 23:54:01 437.425
DX 1 28 Sep 23:50:05 23:54:13 42° 72° (ENE) 23:58:20 434.975-435.025
BEESAT 3 28 Sep 23:51:37 23:54:04 16° 110° (ESE) 23:56:31 437.485
50 SAT 28 Sep 23:57:12 00:00:49 80° 77° (ENE) 00:04:28 437.505
VELOX 1 29 Sep 00:01:29 00:05:57 90° 216° (SW) 00:10:26 145.980
CUBEBUG 1 29 Sep 00:02:59 00:07:23 66° 259° (W) 00:11:47 437.445
QB50P2 29 Sep 00:04:21 00:08:22 42° 99° (E) 00:12:23 145.880/145.840
POLYITAN 1 29 Sep 00:06:32 00:10:33 42° 99° (E) 00:14:35 437.675
ESTCUBE 1 29 Sep 00:07:11 00:11:24 38° 262° (W) 00:15:39 437.505/2401.250
M-CUBED/EXP-1 PRIME 29 Sep 00:18:11 00:22:17 55° 254° (WSW) 00:26:05 437.505
TISAT 1 29 Sep 00:21:29 00:23:56 15° 66° (ENE) 00:26:23 437.305
ANTELSAT 29 Sep 00:21:59 00:24:58 18° 293° (WNW) 00:27:59 437.575/2403.000
ISS 29 Sep 00:33:23 00:34:36 12° 13° (NNE) 00:35:49 145.825
Cosmos 2491 29 Sep 00:37:32 00:43:46 21° 65° (ENE) 00:49:56 435.465 / 435.565
SPROUT 29 Sep 00:38:48 00:43:01 63° 259° (WSW) 00:47:15 437.525
JAS-2 29 Sep 00:39:29 00:47:22 70° 101° (ESE) 00:54:45 435.910
BUGSAT 1 29 Sep 00:40:56 00:44:37 34° 98° (E) 00:48:17 437.445
DUCHIFAT 1 29 Sep 00:42:47 00:47:00 83° 283° (WNW) 00:51:12 145.980
TIGRISAT 29 Sep 00:43:26 00:45:01 12° 296° (WNW) 00:46:36 435.000
QB50P1 29 Sep 00:46:12 00:50:22 65° 285° (WNW) 00:54:33 145.935-145.965
BEESAT 2 29 Sep 00:48:06 00:51:40 34° 115° (ESE) 00:55:16 435.950
UKube-1 29 Sep 00:55:17 00:59:25 45° 260° (W) 01:03:36 .
AISAT 29 Sep 00:55:33 00:59:01 22° 265° (W) 01:02:29 437.250
SO-50 29 Sep 00:58:10 01:02:14 33° 246° (WSW) 01:06:13 436.795
POPSAT HIP 1 29 Sep 00:59:58 01:03:59 45° 287° (WNW) 01:08:01 437.405
SRMSAT 29 Sep 01:01:45 01:02:43 10° 185° (S) 01:03:41 437.500
ITUPSAT 1 29 Sep 01:12:53 01:14:47 12° 61° (ENE) 01:16:41 437.325
NANOSAT C BR1 29 Sep 01:15:44 01:19:27 32° 289° (WNW) 01:23:12 145.865
AUBIESAT-1 29 Sep 01:16:08 01:18:26 15° 260° (W) 01:20:41 437.475
RS-15 29 Sep 01:20:08 01:28:28 20° 7° (N) 01:36:52 29.354- 29.394
SWISSCUBE 29 Sep 01:23:50 01:27:02 18° 65° (ENE) 01:30:16 437.505
BEESAT 3 29 Sep 01:27:44 01:31:23 38° 306° (NW) 01:35:06 437.485
DX 1 29 Sep 01:27:50 01:30:33 16° 267° (W) 01:33:19 434.975-435.025
BEESAT 29 Sep 01:36:14 01:39:49 22° 66° (ENE) 01:43:25 436.000
YUBILEINY 29 Sep 01:37:05 01:42:47 19° 79° (E) 01:48:27 435.215
QB50P2 29 Sep 01:41:15 01:43:49 16° 294° (WNW) 01:46:22 145.880/145.840
Oscar 19 29 Sep 01:42:32 01:47:09 32° 97° (E) 01:51:43 437.125/150
POLYITAN 1 29 Sep 01:43:27 01:46:00 16° 294° (WNW) 01:48:34 437.675
TISAT 1 29 Sep 01:55:14 01:59:13 43° 261° (W) 02:03:13 437.305
ISS 29 Sep 02:08:45 02:11:50 36° 32° (NNE) 02:14:55 145.825
BUGSAT 1 29 Sep 02:17:04 02:19:43 17° 293° (WNW) 02:22:22 437.445
JAS-2 29 Sep 02:25:29 02:31:36 26° 300° (WNW) 02:37:31 435.910
BEESAT 2 29 Sep 02:26:31 02:29:33 21° 312° (NW) 02:32:37 435.950
Cosmos 2491 29 Sep 02:32:47 02:41:39 82° 265° (W) 02:50:27 435.465 / 435.565
ITAMSAT 1 29 Sep 02:39:49 02:42:26 14° 91° (E) 02:45:03 435.822/435.867
ITUPSAT 1 29 Sep 02:47:14 02:51:58 73° 258° (WSW) 02:56:46 437.325
Gurwin Techsat 1B 29 Sep 02:49:20 02:54:40 68° 102° (ESE) 02:59:56 435.225
MOZHAYETS 4 29 Sep 02:52:09 02:55:34 21° 67° (ENE) 02:58:59
SWISSCUBE 29 Sep 02:59:53 03:04:27 46° 260° (W) 03:09:03 437.505
KKS-1 29 Sep 03:08:51 03:12:06 20° 67° (ENE) 03:15:21 437.445
BEESAT 29 Sep 03:12:56 03:17:20 38° 262° (W) 03:21:47 436.000
AIST 2 29 Sep 03:20:20 03:24:18 52° 117° (ESE) 03:28:19 435.215
Oscar 19 29 Sep 03:21:59 03:26:21 29° 293° (WNW) 03:30:41 437.125/150
YUBILEINY 29 Sep 03:29:39 03:38:27 81° 277° (W) 03:47:15 435.215
RS-15 29 Sep 03:34:35 03:45:59 40° 41° (NE) 03:57:10 29.354- 29.394
Cosmos 2504 29 Sep 03:37:23 03:44:17 44° 90° (E) 03:50:58 435.465 / 435.565
STARS 29 Sep 03:39:07 03:42:20 20° 67° (ENE) 03:45:32 437.465
ISS 29 Sep 03:45:32 03:48:11 23° 228° (SW) 03:50:50 145.825
AO-7 29 Sep 03:58:19 04:06:04 42° 100° (E) 04:13:47 29.400- 29.500
PCSat 29 Sep 04:12:35 04:17:55 67° 115° (ESE) 04:23:19 145.827
CUBESAT XI-V 29 Sep 04:15:08 04:18:39 21° 67° (ENE) 04:22:11 437.345
ITAMSAT 1 29 Sep 04:17:09 04:22:20 67° 287° (WNW) 04:27:31 435.822/435.867
MOZHAYETS 4 29 Sep 04:28:17 04:32:28 36° 263° (W) 04:36:43
Gurwin Techsat 1B 29 Sep 04:30:58 04:34:00 16° 298° (WNW) 04:37:02 435.225
Cosmos 2491 29 Sep 04:32:44 04:36:59 15° 284° (WNW) 04:41:14 435.465 / 435.565
AIST 1 29 Sep 04:33:55 04:37:24 23° 89° (E) 04:40:52
KKS-1 29 Sep 04:44:19 04:48:24 36° 262° (W) 04:52:31 437.445
AO-85 29 Sep 04:59:14 05:02:27 21° 47° (NE) 05:05:30 145.980
AIST 2 29 Sep 05:00:25 05:03:04 16° 315° (NW) 05:05:45 435.215
STARS 29 Sep 05:14:26 05:18:26 35° 262° (W) 05:22:27 437.465
Cosmos 2504 29 Sep 05:31:23 05:37:45 31° 287° (WNW) 05:43:59 435.465 / 435.565
YUBILEINY 29 Sep 05:31:52 05:36:42 16° 298° (WNW) 05:41:33 435.215
CUSAT 1 29 Sep 05:46:57 05:54:25 53° 74° (ENE) 06:00:34 437.405
RS-15 29 Sep 05:47:13 05:59:30 72° 245° (WSW) 06:11:25 29.354- 29.394
DANDE 29 Sep 05:47:33 05:54:31 28° 67° (ENE) 06:01:04 436.750
AO-7 29 Sep 05:51:08 05:58:46 43° 298° (WNW) 06:06:25 29.400- 29.500
CUBESAT XI-V 29 Sep 05:51:24 05:55:46 38° 263° (W) 06:00:10 437.345
STRAND 1 29 Sep 05:51:41 05:53:23 12° 60° (ENE) 05:55:05 437.568
HORYU 2 29 Sep 05:56:03 06:00:28 63° 101° (E) 06:04:54 437.375
PCSat 29 Sep 05:57:57 06:01:49 19° 313° (NW) 06:05:41 145.827
LilacSat-2 29 Sep 06:05:34 06:07:28 13° 92° (E) 06:09:21 437.200
NOAA 15 29 Sep 06:06:14 06:10:14 21° 94° (E) 06:14:11 137.62
AIST 1 29 Sep 06:11:07 06:14:50 27° 284° (WNW) 06:18:33
GOMX 1 29 Sep 06:17:28 06:20:53 22° 94° (E) 06:24:12 467.674
CUTE-I 29 Sep 06:26:32 06:31:05 28° 96° (E) 06:35:37 437.470
Cubesat XI-IV 29 Sep 06:26:50 06:31:22 27° 96° (E) 06:35:54 437.490
DOVE 4 29 Sep 06:33:05 06:34:56 13° 91° (E) 06:36:47 437.250
BRITE-PL 29 Sep 06:34:25 06:39:13 86° 279° (W) 06:43:36 437.365/2234.400
O/OREOS (USA 219) 29 Sep 06:37:07 06:41:12 34° 104° (ESE) 06:45:20 437.305
AO-85 29 Sep 06:39:16 06:42:57 33° 246° (WSW) 06:46:27 145.980
NOAA 18 29 Sep 07:18:43 07:24:10 66° 103° (ESE) 07:29:37 137.9125
HO-68 29 Sep 07:24:36 07:28:53 17° 91° (E) 07:33:08 435.675
STRAND 1 29 Sep 07:26:42 07:31:48 86° 255° (WSW) 07:36:57 437.568
CANX-2 29 Sep 07:29:24 07:30:54 12° 90° (E) 07:32:24 2200.000
DANDE 29 Sep 07:29:36 07:37:55 66° 266° (W) 07:45:27 436.750
CUSAT 1 29 Sep 07:29:47 07:35:49 27° 276° (W) 07:41:02 437.405
CINEMA 3 29 Sep 07:34:05 07:36:41 16° 93° (E) 07:39:19 145.822/145.860
HORYU 2 29 Sep 07:34:39 07:36:29 12° 297° (WNW) 07:38:19 437.375
LilacSat-2 29 Sep 07:38:19 07:41:54 38° 287° (WNW) 07:45:30 437.200
NOAA 15 29 Sep 07:45:09 07:50:11 45° 290° (WNW) 07:55:10 137.62
GONETS M04 29 Sep 07:53:20 08:01:07 36° 85° (E) 08:08:54
GOMX 1 29 Sep 07:55:18 07:58:59 27° 291° (WNW) 08:02:32 467.674
RS-15 29 Sep 08:03:43 08:09:36 15° 265° (W) 08:15:26 29.354- 29.394
CUTE-I 29 Sep 08:06:18 08:11:08 36° 291° (WNW) 08:15:59 437.470
Cubesat XI-IV 29 Sep 08:06:37 08:11:27 36° 291° (WNW) 08:16:18 437.490
DOVE 4 29 Sep 08:08:56 08:12:56 45° 287° (WNW) 08:16:52 437.250
PRISM 29 Sep 08:14:08 08:17:37 26° 69° (ENE) 08:21:05 437.425
O/OREOS (USA 219) 29 Sep 08:17:02 08:20:39 23° 301° (WNW) 08:24:19 437.305
COMPASS 1 29 Sep 08:29:16 08:32:37 23° 95° (E) 08:35:57 437.405
CUBEBUG 2 29 Sep 08:31:29 08:34:37 19° 94° (E) 08:37:46 437.445
Cosmos 2499 29 Sep 08:36:20 08:43:15 55° 92° (E) 08:50:05 435.465 / 435.565
UWE-3 29 Sep 08:46:33 08:49:36 19° 94° (E) 08:52:43 435.000/436.395/437.385
SEEDS 29 Sep 08:59:55 09:04:12 79° 102° (ESE) 09:08:27 437.485
NOAA 18 29 Sep 09:00:53 09:04:15 17° 299° (WNW) 09:07:38 137.9125
CUTE 1.7 + AOD 2 29 Sep 09:01:15 09:05:32 69° 284° (WNW) 09:09:48 437.475
CANX-2 29 Sep 09:02:51 09:07:05 56° 286° (WNW) 09:11:18 2200.000
BEESAT 2 29 Sep 09:07:25 09:10:08 17° 46° (NE) 09:12:50 435.950
Oscar 11 29 Sep 09:07:47 09:10:54 19° 93° (E) 09:14:00 145.826/435.025
UNISAT 6 29 Sep 09:09:03 09:11:05 13° 64° (ENE) 09:13:07 437.425
CINEMA 3 29 Sep 09:10:05 09:13:58 38° 288° (WNW) 09:17:56 145.822/145.860
HO-68 29 Sep 09:10:08 09:17:19 82° 288° (WNW) 09:24:28 435.675
ZACube-1 29 Sep 09:12:15 09:15:42 22° 95° (E) 09:19:11 437.345
DANDE 29 Sep 09:16:22 09:19:01 12° 284° (WNW) 09:21:37 436.750
AAUSAT CUBESAT 2 29 Sep 09:18:12 09:22:24 67° 102° (ESE) 09:26:31 437.432
PHONESAT 2.4 29 Sep 09:32:59 09:35:07 19° 150° (SSE) 09:37:16 2401.200-2431.200
ANTELSAT 29 Sep 09:42:25 09:46:09 30° 70° (ENE) 09:49:52 437.575/2403.000
